Wind_Speed
32 32 31 30 29 28 28 27 26 24 23 22 22 21 20 19 18 18 17 17 17 17 15 14 14 14 14 14 14 14 15 15 13 11 9 7 6 4 5 6 5 5 4 4 3 2 1 2 2 2 3 4 6 9 12 15 17 19 22 23 24 26 27 28 28 29 29 30 31 33 34 35 35 35 35 35 35 34 33 32 30 29 27 25 24 23 22 21
34 33 32 31 30 29 28 27 26 25 24 23 22 22 21 20 20 19 19 19 19 19 18 17 17 16 16 16 17 17 16 16 16 15 13 11 9 6 6 6 5 5 5 5 5 4 3 3 3 3 3 4 4 6 7 8 11 13 16 19 21 23 24 25 26 27 28 29 30 32 33 34 34 35 35 35 35 34 33 30 28 26 23 22 22 21 21 21
34 33 32 31 30 29 28 27 26 25 25 24 23 23 22 22 21 20 20 20 21 21 21 20 20 20 19 18 18 19 18 18 17 17 17 14 12 9 8 7 7 7 6 6 6 6 6 6 6 5 5 6 6 6 6 6 6 8 10 13 15 17 19 20 21 22 24 26 28 30 32 33 34 34 35 35 35 33 31 28 25 22 21 20 20 20 20 20
35 34 32 31 30 29 29 28 27 26 26 25 25 25 24 24 23 22 22 22 22 23 23 23 23 23 23 21 21 20 20 20 19 19 19 18 16 12 11 10 10 10 9 8 8 8 8 8 8 8 8 8 8 8 8 7 7 7 9 10 11 12 13 14 14 15 16 18 21 23 25 27 30 32 33 34 33 31 29 26 23 21 20 20 21 21 21 20
34 34 33 32 31 30 29 29 28 28 27 27 27 27 27 26 26 25 24 24 24 25 25 25 25 26 25 24 23 22 22 22 21 21 21 20 19 16 14 14 13 13 12 11 10 10 10 10 10 11 10 10 10 10 10 10 9 10 10 10 11 11 11 11 11 11 11 12 14 15 17 18 21 23 26 29 30 29 28 25 23 22 21 22 22 22 21 20
35 34 33 33 32 31 31 31 30 30 30 30 30 31 30 29 28 28 27 27 27 27 27 27 26 27 27 27 26 25 24 24 23 23 23 22 22 21 18 18 17 16 16 15 13 12 12 11 12 13 13 13 13 12 12 12 12 12 12 12 12 12 12 12 11 11 10 11 12 13 14 14 15 16 18 21 24 26 26 24 24 23 23 22 21 21 20 18
36 35 35 35 34 34 34 33 33 33 33 33 34 34 34 33 31 31 30 30 29 29 29 29 28 28 28 28 27 27 27 26 25 25 25 25 25 24 23 21 20 19 19 19 17 15 15 13 13 14 14 15 15 15 15 14 14 14 14 14 14 14 14 14 13 11 10 11 12 13 14 15 15 14 14 17 19 21 22 23 24 24 22 20 18 17 16 16
38 38 38 37 37 37 37 37 36 36 36 37 38 38 37 36 34 34 34 33 32 31 31 31 31 30 30 29 29 29 29 28 27 27 28 28 27 27 27 25 24 23 22 22 22 20 17 16 16 15 16 17 16 17 16 16 16 15 16 16 16 16 16 16 15 13 11 10 12 13 14 14 14 13 13 14 15 17 18 19 20 18 15 13 13 13 14 16
41 41 41 41 41 41 40 40 40 39 39 39 41 41 40 38 37 37 36 35 35 33 33 33 33 32 31 31 31 32 31 30 30 30 29 30 29 29 29 28 27 26 25 25 25 24 20 18 18 18 19 18 18 18 18 18 18 17 17 17 17 17 17 17 16 15 12 9 10 13 14 14 13 13 13 13 13 13 14 15 14 11 8 8 10 12 14 15
44 44 44 44 43 43 43 43 43 42 41 42 43 43 42 40 39 39 38 38 37 36 35 35 34 34 33 33 33 34 33 31 32 31 31 31 30 30 30 30 29 28 27 27 28 28 24 20 21 23 23 20 19 20 20 20 19 18 18 18 18 17 18 18 18 17 13 10 8 11 13 13 13 13 13 13 12 12 12 10 8 5 5 6 9 11 12 12
47 47 46 46 46 45 45 45 45 44 43 43 44 44 43 41 41 41 41 40 39 38 37 37 36 35 35 35 35 36 34 33 34 33 32 32 31 31 31 31 31 30 29 29 30 29 26 23 24 27 26 22 21 22 22 22 21 20 19 19 18 17 18 19 19 18 15 11 7 8 11 12 12 12 13 12 12 10 9 5 2 2 2 5 8 10 10 9
49 49 48 48 47 47 46 46 46 45 45 45 46 47 45 44 44 43 43 43 42 40 39 39 38 37 36 36 37 38 34 34 36 35 34 34 33 33 32 32 33 32 32 31 31 30 28 26 28 30 29 26 24 24 24 24 23 22 21 20 19 17 19 20 19 19 16 13 8 7 9 10 11 11 11 11 11 9 7 2 4 3 1 4 6 8 8 8
51 50 50 50 49 49 48 48 48 47 47 47 48 48 47 46 46 45 44 44 43 42 41 40 39 39 38 38 39 38 35 36 37 38 38 36 35 34 34 35 35 35 35 34 33 33 31 30 31 32 31 29 28 27 27 26 25 24 23 22 20 18 19 21 19 20 18 14 10 7 8 9 10 10 10 11 11 9 6 1 3 2 1 2 5 7 8 9
53 53 52 52 51 51 50 50 50 49 48 48 49 49 48 48 47 47 46 45 45 45 43 42 41 41 40 40 42 39 37 39 40 41 41 38 37 37 38 37 37 37 37 37 36 36 35 34 35 35 34 33 31 30 29 29 28 26 25 24 22 20 21 22 20 20 19 15 12 9 9 10 10 10 10 10 11 9 6 2 2 3 3 3 4 7 9 10
54 54 53 53 52 52 52 52 51 50 49 50 50 50 49 49 49 49 48 47 48 47 46 45 44 44 43 43 44 42 40 42 43 43 42 40 40 40 41 40 39 40 39 40 40 39 38 38 39 38 38 36 34 34 33 32 31 29 27 26 24 23 23 23 20 20 19 16 14 11 9 10 11 11 10 9 10 10 6 2 2 4 4 5 5 8 10 11
55 55 55 54 54 53 53 53 53 52 51 52 52 52 51 51 52 51 50 50 50 50 50 48 47 47 45 46 47 44 43 45 46 45 43 43 43 43 43 42 41 41 41 42 42 42 41 41 42 41 40 38 37 37 36 36 36 33 29 27 26 25 25 24 22 21 19 16 15 13 10 10 11 12 12 10 10 10 6 2 2 4 6 7 7 9 11 12
59 58 58 57 57 56 56 56 56 55 54 54 55 54 54 54 54 54 53 53 53 52 52 51 50 49 48 47 48 46 45 46 47 46 45 45 45 44 43 42 42 42 42 43 43 43 43 43 44 43 42 41 40 40 40 41 39 35 31 29 27 27 27 26 24 22 20 17 16 14 11 10 11 12 12 12 10 10 7 2 3 4 6 8 9 10 12 13
63 63 62 62 61 60 59 59 59 59 58 57 57 57 56 55 55 56 56 55 55 54 53 54 53 51 50 48 49 48 46 47 48 47 46 45 46 45 43 43 43 42 42 43 43 43 43 44 44 44 44 43 44 44 45 45 41 36 33 30 30 29 29 28 26 25 22 18 15 14 13 11 11 12 12 13 11 10 8 3 3 4 6 8 9 11 12 13
64 64 64 63 63 62 61 61 61 61 60 59 59 59 58 57 57 57 58 58 57 56 55 56 56 54 52 50 49 50 48 47 48 48 47 46 46 45 43 43 42 42 42 42 41 41 42 44 45 47 47 46 47 48 49 47 41 38 36 33 32 32 31 30 28 27 25 21 16 14 14 12 11 11 11 13 12 10 8 4 4 4 5 8 9 11 13 13
65 65 65 64 64 63 62 62 63 63 62 61 60 61 61 59 59 59 60 60 59 58 57 58 58 56 55 52 50 50 49 48 48 48 47 46 45 44 43 43 42 42 41 40 40 41 43 45 47 47 46 45 46 47 49 47 42 40 39 36 35 35 34 32 30 29 27 23 18 15 15 14 12 11 10 12 12 11 8 5 3 5 6 7 10 12 13 13
69 69 69 68 67 66 65 64 65 65 65 64 63 63 63 63 62 61 62 62 61 60 59 59 59 59 58 54 50 50 49 48 48 48 46 45 45 44 43 42 42 42 40 39 41 43 44 45 44 43 43 43 44 47 48 49 45 42 42 40 38 39 37 34 32 31 29 27 21 17 17 16 14 11 9 11 12 11 8 6 3 5 6 8 11 13 13 13
71 71 71 71 71 70 68 67 68 68 68 68 67 65 65 65 64 63 63 63 63 62 61 61 59 61 60 54 51 50 47 48 49 48 46 44 43 44 44 42 42 42 39 39 42 44 44 42 40 40 41 42 44 46 49 51 48 45 44 43 43 44 41 36 34 33 32 30 25 20 19 17 15 13 9 11 12 11 9 6 3 4 6 9 12 14 14 12
75 74 74 74 74 73 71 70 70 69 69 69 69 68 67 66 66 65 64 64 65 63 62 63 60 61 62 57 52 49 47 49 49 48 46 44 42 44 44 43 42 40 38 40 43 44 43 39 37 40 41 41 44 45 48 50 49 48 47 47 49 49 43 38 37 35 34 33 28 23 20 18 18 14 10 12 13 11 10 7 4 4 7 9 12 14 14 12
76 76 76 76 76 77 75 73 73 72 72 72 72 71 70 69 68 67 66 65 66 65 64 64 61 61 62 58 51 47 48 50 49 49 48 45 43 43 43 44 42 38 38 41 41 43 43 38 37 40 40 41 42 43 46 49 49 49 48 51 54 51 43 39 37 36 36 34 30 26 22 20 20 16 13 14 13 11 11 8 5 5 8 11 13 14 14 13
77 77 76 76 76 77 77 75 74 73 73 74 73 72 71 71 70 68 67 64 65 67 66 63 62 62 62 58 52 50 50 51 51 50 47 45 45 42 42 43 40 38 40 40 39 42 43 38 36 39 39 39 40 42 44 46 48 48 49 53 54 50 44 40 38 36 36 36 32 28 25 24 22 19 16 16 15 13 12 9 6 6 9 13 15 15 14 14
78 78 78 77 77 79 79 77 76 74 74 74 73 73 72 71 71 69 68 65 64 68 69 65 63 63 63 60 56 53 51 51 55 51 45 46 47 43 42 40 39 41 42 40 38 40 42 39 36 37 39 39 39 41 42 43 43 45 48 51 51 48 45 42 40 37 36 37 33 29 29 28 25 23 19 18 17 15 13 10 7 7 9 13 16 16 15 15
81 80 80 80 79 80 81 80 79 77 76 75 74 74 73 72 72 71 70 68 65 68 70 67 65 63 62 61 59 57 53 53 56 51 46 48 49 45 42 40 40 43 43 40 37 38 41 37 33 35 36 36 38 40 39 37 39 43 44 45 47 46 44 43 41 37 37 38 34 32 32 31 29 27 22 19 19 17 14 11 9 8 9 11 14 15 15 16
83 82 81 81 81 81 82 82 82 81 79 78 77 75 75 74 73 72 72 70 67 68 69 69 67 64 62 62 61 60 57 55 55 52 50 51 49 45 43 42 42 44 44 39 36 39 39 32 30 31 30 33 37 37 34 35 38 40 40 40 43 44 43 43 40 38 40 39 36 36 36 35 35 30 24 22 22 19 15 11 11 9 8 10 12 14 15 16
85 84 83 83 83 83 83 83 84 84 83 81 80 78 77 76 75 74 73 71 69 68 68 69 69 66 64 63 63 62 60 57 56 54 52 52 50 47 45 45 45 45 43 38 37 40 36 31 30 27 27 33 35 33 32 34 37 36 36 37 40 41 41 42 41 42 42 40 40 42 40 39 38 31 27 27 25 20 15 13 13 12 9 9 11 14 16 17
87 86 85 84 85 85 85 85 85 87 87 85 83 81 80 79 77 77 75 71 69 69 69 70 70 69 67 66 65 63 62 61 59 56 54 53 53 50 48 49 47 44 42 41 40 40 37 34 30 27 30 34 33 31 31 33 34 33 33 35 37 38 38 40 42 44 44 45 47 46 43 42 39 33 33 33 27 19 16 16 15 14 12 10 10 14 16 17
86 86 85 84 85 86 87 87 87 87 89 88 87 85 84 82 81 79 75 71 71 71 70 71 71 71 70 69 67 66 64 63 62 60 56 54 54 52 50 49 47 44 43 41 41 42 41 37 32 31 34 34 32 30 29 29 31 31 31 33 34 35 35 37 40 43 47 51 51 47 44 44 40 37 37 34 27 21 20 20 17 15 15 13 11 13 15 18
86 85 85 84 84 85 86 87 87 87 87 88 89 88 87 85 83 80 75 73 74 73 71 72 72 72 72 71 70 68 67 66 64 62 59 56 55 53 53 52 50 48 45 44 46 48 46 41 38 38 38 36 33 31 28 27 29 30 30 31 31 32 33 34 38 44 48 51 50 46 44 45 43 40 38 34 28 25 23 22 19 18 18 17 14 14 15 17
89 87 86 86 86 86 86 86 87 87 86 87 88 88 88 87 83 79 76 77 77 75 73 73 73 74 74 73 72 71 69 68 66 65 63 59 56 55 56 55 53 50 48 49 52 51 48 45 41 39 39 38 36 33 29 28 30 31 29 28 28 28 29 32 36 40 45 48 48 46 45 48 46 43 39 36 32 29 26 24 22 20 20 20 18 16 16 17
91 90 88 88 88 87 87 87 88 88 88 87 87 87 87 85 81 79 78 79 79 77 75 74 74 75 76 76 75 73 72 70 68 67 65 63 59 57 58 57 54 51 50 52 51 49 47 45 42 40 42 42 39 36 32 30 30 29 25 23 22 23 26 30 32 34 38 43 45 45 47 50 50 46 42 38 35 33 29 26 24 23 22 22 20 19 19 19
93 92 91 90 90 89 89 89 89 89 89 89 89 88 86 83 82 82 81 80 79 78 77 76 76 77 78 78 77 76 75 73 71 69 68 66 63 61 61 60 58 55 55 54 51 50 48 46 46 46 44 43 40 37 34 32 30 28 23 19 21 25 27 27 28 29 32 37 41 45 50 52 52 49 44 40 38 36 33 30 27 26 24 23 22 22 21 21
95 95 93 92 91 91 91 90 90 90 91 91 91 89 87 85 85 84 82 81 80 79 79 78 78 79 79 79 79 79 77 75 73 72 70 68 66 65 64 63 61 58 56 54 52 52 50 49 51 50 46 45 43 41 38 35 33 29 22 23 26 26 23 23 25 26 28 33 39 44 49 52 52 50 48 44 42 39 37 35 32 30 27 24 24 25 24 23
97 98 97 95 93 93 93 92 92 91 91 92 92 90 89 89 88 86 83 82 82 82 81 81 80 80 80 79 80 80 79 78 76 75 73 71 69 68 66 64 62 59 56 54 53 52 50 51 53 51 49 49 47 44 40 35 32 28 25 28 28 22 20 23 24 24 27 32 38 43 47 50 51 53 52 49 46 43 41 39 36 33 30 27 27 27 27 26
99 99 99 98 97 96 95 94 93 93 93 93 92 92 91 91 89 88 85 84 84 84 84 84 83 82 81 80 81 82 82 81 79 78 76 73 71 69 68 66 64 61 58 55 54 53 52 53 53 51 51 50 48 43 37 30 28 28 29 28 24 19 19 22 24 26 29 32 35 40 43 46 50 53 53 50 48 46 43 41 39 36 33 32 31 29 28 28
102 102 101 101 100 99 97 96 95 95 94 94 93 93 92 91 90 89 87 86 86 86 86 87 86 84 82 81 82 83 84 84 83 81 79 75 72 70 70 68 66 63 60 56 55 55 55 55 54 53 53 51 47 41 34 30 30 31 30 28 25 24 23 24 26 27 28 30 32 34 38 42 46 50 51 50 48 46 45 42 40 38 36 35 34 32 30 29
105 104 104 103 104 102 100 99 98 98 97 96 94 93 92 92 91 91 89 88 87 87 88 89 88 87 85 83 83 84 86 86 86 84 81 78 74 72 72 70 68 65 62 60 58 57 58 57 56 56 56 51 46 40 36 35 35 33 32 31 31 30 29 28 28 28 28 30 31 33 35 38 42 46 48 48 47 46 45 43 41 39 37 36 35 33 32 31
107 107 106 106 107 106 103 101 101 101 100 99 97 95 93 92 92 92 90 89 88 88 88 89 90 89 88 86 85 85 86 88 88 87 84 81 77 75 73 72 70 68 66 64 62 60 59 59 58 58 56 51 46 43 42 42 40 38 36 34 34 33 32 30 29 30 30 29 30 32 33 33 35 41 45 46 47 48 47 46 44 42 40 39 38 36 35 34
107 107 107 108 109 108 106 105 104 103 103 102 101 99 96 93 93 93 92 90 89 89 88 89 91 91 90 89 88 87 88 89 90 89 87 84 80 78 76 75 73 71 69 68 66 63 61 60 60 60 58 53 50 48 47 45 43 41 38 36 34 32 30 28 27 29 28 26 26 26 27 27 27 31 36 39 42 45 47 48 48 46 45 43 42 40 39 38
102 102 102 104 107 107 107 107 107 107 106 105 103 102 100 97 94 93 93 92 90 89 89 89 91 91 92 92 91 90 90 91 92 91 89 87 84 81 79 77 77 75 73 71 69 66 64 63 63 62 61 58 54 52 51 48 46 43 40 37 35 32 30 29 28 27 24 22 20 18 22 25 23 22 27 30 34 38 42 47 49 49 48 46 45 44 43 41
91 91 91 93 97 101 103 105 106 107 108 108 106 104 103 101 98 95 94 93 91 91 90 89 90 91 92 93 93 93 93 93 93 92 91 90 87 85 82 80 80 78 76 74 71 69 67 65 65 65 64 61 58 55 52 49 46 43 40 39 37 36 35 31 28 26 22 19 18 16 21 26 23 21 23 25 28 32 36 42 47 50 50 49 48 47 45 44
80 80 79 80 83 88 92 96 100 103 106 108 108 107 105 104 102 99 96 95 93 93 92 90 89 90 92 94 95 95 95 95 95 94 93 92 91 88 86 84 83 81 80 78 75 73 71 68 68 67 66 63 59 55 52 50 47 44 42 41 40 39 37 34 31 29 25 22 19 18 24 28 26 24 24 24 26 28 31 36 41 47 50 51 50 48 47 46
69 69 70 70 71 75 79 83 88 94 99 104 106 107 107 106 105 103 100 98 96 95 93 91 90 91 92 94 96 97 98 98 97 95 94 94 93 91 89 87 86 84 82 81 79 77 74 72 70 69 67 65 62 58 57 55 52 49 47 45 43 42 40 37 34 32 29 25 22 22 26 30 27 25 24 23 24 26 28 31 35 41 46 50 51 50 49 48
61 61 62 62 62 65 69 72 76 81 89 95 100 104 106 107 107 105 103 101 100 97 94 93 92 92 92 93 95 98 99 100 99 97 96 95 95 94 92 90 89 87 85 84 82 81 78 75 73 71 69 67 65 63 61 59 56 53 51 49 48 46 43 39 37 34 33 29 27 28 29 29 29 27 25 24 25 25 27 28 29 32 37 43 47 49 50 51
55 55 55 56 57 58 60 63 66 71 77 85 92 97 101 105 107 106 105 104 103 100 96 94 93 92 92 93 95 98 100 101 100 99 97 96 96 95 95 93 91 89 88 86 85 84 82 79 76 74 72 70 69 67 65 62 60 57 55 52 51 50 47 43 40 38 36 33 31 34 33 29 29 29 26 25 25 24 25 24 24 25 28 32 37 42 46 48
51 50 49 49 51 53 54 56 59 63 68 75 82 87 93 99 104 106 106 105 105 103 99 97 95 93 93 94 95 97 99 100 101 100 98 97 97 97 97 96 94 92 90 88 87 86 85 83 79 77 74 72 72 71 68 65 63 61 58 56 55 53 50 48 45 42 38 35 34 35 33 29 31 32 30 29 27 24 23 23 23 23 24 26 28 32 37 41
46 46 44 43 45 48 50 51 53 57 62 67 72 78 83 90 98 103 105 105 105 104 102 100 98 95 94 95 95 96 98 99 100 100 100 99 99 98 98 98 96 94 92 90 89 88 87 85 83 80 78 76 74 73 71 69 66 64 61 59 57 56 53 51 48 45 42 39 37 36 33 30 34 36 37 37 32 26 25 25 25 24 24 26 27 29 32 35
42 42 40 38 40 43 46 48 49 52 56 61 65 70 75 81 89 97 102 104 105 105 105 104 102 98 96 95 95 95 95 97 99 100 101 101 101 100 99 99 98 97 95 92 91 90 89 87 85 83 81 79 77 76 74 72 69 67 65 62 60 58 56 54 51 48 46 44 41 39 35 34 39 41 41 41 37 30 28 28 27 26 26 26 27 28 30 32
39 38 37 35 36 38 41 44 46 47 50 55 60 64 68 74 80 88 96 101 104 105 105 105 104 102 99 96 95 94 94 96 98 100 101 102 101 101 100 100 99 98 97 95 92 91 90 89 88 87 84 81 80 79 76 75 73 70 67 66 63 61 59 58 55 51 49 47 45 42 39 41 46 45 42 42 40 35 32 32 30 29 27 25 25 27 28 30
Wind_Direction
271 272 273 273 273 274 274 273 273 273 273 273 272 272 271 268 267 268 270 272 275 278 280 282 285 289 296 301 305 306 307 310 313 315 314 312 316 324 323 326 334 335 338 346 347 352 349 338 336 328 300 270 255 249 245 245 245 246 248 249 250 251 251 252 254 256 258 259 261 262 263 264 265 266 267 268 269 270 271 273 276 278 280 280 280 279 280 283
271 271 272 272 272 272 271 271 271 271 271 270 270 269 269 268 267 267 269 272 275 278 281 283 284 285 288 292 295 297 299 301 303 304 302 301 302 304 305 304 305 304 304 307 312 311 301 291 284 284 283 283 276 267 259 253 251 252 253 254 253 254 255 257 258 259 260 261 262 263 264 266 267 267 268 268 268 269 270 272 274 276 277 276 276 277 280 284
270 270 270 270 270 270 269 269 269 269 269 268 268 267 267 266 266 267 269 271 274 277 280 282 284 284 285 286 288 290 292 292 294 296 295 295 295 293 288 283 281 281 278 278 285 291 291 288 284 278 273 272 274 272 268 257 249 250 253 256 258 259 260 261 263 263 264 264 265 265 266 267 267 267 267 267 268 268 269 271 272 273 274 274 277 280 284 288
269 269 268 268 267 268 268 268 268 268 268 268 267 267 266 265 265 265 266 268 271 274 276 278 280 282 282 282 283 284 285 286 287 288 289 290 289 287 281 274 273 274 272 267 267 273 277 282 282 280 276 273 273 273 272 265 256 252 251 253 255 257 255 255 258 261 265 268 268 269 270 271 269 268 267 266 266 267 267 267 268 270 273 276 280 283 287 288
267 267 267 267 267 267 267 267 267 267 267 268 268 267 266 266 266 265 266 266 268 270 271 273 276 278 279 279 279 279 279 280 281 282 284 285 286 285 281 277 275 274 273 269 266 267 266 270 275 277 278 275 274 274 274 272 269 267 265 264 263 262 259 256 256 260 269 276 278 278 278 278 277 275 272 269 267 266 264 264 266 269 273 278 282 284 286 285
266 266 267 267 267 267 267 267 267 268 268 268 268 268 267 267 267 267 266 265 266 267 269 270 271 273 275 276 276 276 275 275 277 278 279 280 282 282 280 278 276 274 274 271 268 265 262 263 266 270 274 276 276 275 275 274 272 272 272 271 272 273 272 269 269 272 281 291 293 292 291 290 289 289 285 278 273 269 266 264 264 267 271 276 279 283 284 281
266 267 267 267 267 267 267 268 268 268 269 269 269 269 269 268 268 268 267 267 266 267 268 268 268 268 270 272 273 273 273 273 273 274 275 276 278 279 277 276 274 273 272 272 270 264 263 262 260 262 267 270 273 274 274 274 273 273 273 274 274 275 277 277 277 281 289 299 302 302 301 298 298 301 300 291 283 277 273 269 267 266 267 269 274 280 280 276
266 266 267 267 268 268 268 268 268 269 269 270 270 270 269 269 269 269 268 268 267 267 267 267 266 266 267 269 270 271 271 272 273 272 273 274 275 276 276 274 272 272 271 270 270 267 265 264 260 259 260 262 266 270 273 274 273 272 274 274 275 276 278 280 280 282 289 300 306 305 303 304 305 312 313 304 294 284 275 270 266 264 263 264 270 273 272 272
265 266 266 267 268 268 269 269 269 269 270 270 271 271 270 270 270 270 269 268 268 267 266 266 266 266 267 268 269 269 270 271 272 272 272 273 273 273 273 273 272 271 270 270 270 269 267 265 264 260 257 256 260 265 268 270 272 272 273 275 277 279 281 282 282 282 284 295 310 309 306 309 313 323 329 319 303 287 275 267 259 253 255 262 268 270 271 271
265 266 266 267 267 268 269 269 270 270 270 271 271 271 270 271 271 270 269 269 268 267 267 267 267 267 267 268 268 268 269 270 271 270 271 271 271 271 271 272 271 271 270 269 269 271 270 266 262 261 258 256 256 261 264 266 268 270 272 274 276 279 281 282 282 282 282 288 309 313 310 316 322 335 344 331 310 291 277 266 249 235 247 263 270 271 272 270
266 266 266 267 267 267 268 269 269 269 270 270 270 270 270 271 271 271 271 270 269 268 268 268 268 268 268 268 268 268 268 269 270 269 269 269 269 270 270 270 271 271 270 268 269 271 271 265 259 260 262 260 255 256 259 260 263 265 268 271 274 277 279 280 282 282 284 286 301 314 314 321 329 344 354 337 317 297 281 265 172 152 240 264 269 268 269 259
266 266 266 266 266 266 267 267 268 268 269 270 270 271 271 271 271 271 271 271 270 269 269 269 269 268 268 269 268 268 268 269 269 269 267 267 267 268 269 270 270 270 270 269 270 271 271 265 258 260 263 261 257 255 255 256 257 259 262 266 270 274 276 277 280 282 284 286 295 308 314 322 332 346 358 342 324 308 288 256 117 110 226 266 267 259 250 229
266 266 266 266 266 266 267 267 267 268 268 269 270 271 271 271 271 271 271 271 271 270 269 269 269 269 269 269 268 268 269 269 269 269 267 266 268 269 269 270 270 270 271 270 270 270 269 264 258 260 262 259 257 256 255 255 255 255 258 262 266 269 271 273 277 280 282 285 290 298 306 315 324 335 353 349 332 318 298 250 135 125 131 244 255 242 224 199
266 266 267 267 267 267 268 268 268 267 268 269 270 271 271 271 271 271 271 272 272 271 270 270 270 269 269 269 269 269 269 269 268 268 268 268 269 269 268 268 268 269 269 269 269 268 267 264 260 260 260 258 258 257 255 254 254 253 254 257 260 263 266 268 272 277 281 285 290 294 300 306 312 320 340 352 339 326 309 265 165 160 150 186 224 224 207 184
267 267 267 267 268 268 268 268 268 268 268 268 269 270 270 271 271 271 271 271 272 271 271 270 270 270 269 269 269 269 269 269 268 268 269 270 269 268 267 267 267 267 268 268 267 266 265 263 261 259 259 260 260 257 254 254 253 251 250 251 254 258 262 265 268 273 277 283 286 288 291 298 304 310 324 343 343 335 321 278 204 184 165 168 195 205 197 181
267 267 267 267 267 267 267 267 267 267 267 267 268 268 269 270 270 270 270 270 271 271 271 270 270 270 269 269 270 270 269 269 269 269 270 269 268 267 267 267 267 267 266 265 264 263 262 261 260 259 259 260 257 255 254 251 250 250 248 248 250 254 258 261 264 268 272 277 280 281 283 292 300 304 312 326 338 342 334 274 208 192 175 165 178 193 190 180
267 266 266 266 266 266 266 266 266 266 266 266 266 267 267 268 269 270 269 269 270 270 271 271 270 269 269 269 270 270 269 270 270 270 270 270 269 268 268 268 267 265 264 263 263 262 262 261 260 259 259 258 256 254 251 247 248 251 250 248 248 250 255 258 260 263 266 269 273 277 279 285 295 299 305 313 327 345 345 286 203 186 180 168 169 184 184 178
267 267 266 266 265 265 265 265 265 265 265 265 265 266 266 267 268 269 269 269 269 269 270 271 270 269 269 269 270 270 270 270 271 270 270 269 268 268 268 266 265 264 263 262 262 261 261 260 259 258 256 254 252 248 246 247 249 253 252 248 247 248 251 254 256 259 260 261 265 272 276 277 286 293 301 306 316 339 351 313 213 182 180 175 168 176 180 178
268 268 267 266 266 265 264 264 265 265 264 264 264 265 265 265 266 268 268 268 269 269 269 270 270 269 269 269 269 270 270 269 270 270 269 268 268 268 267 266 265 264 262 262 261 261 260 258 256 254 251 249 248 248 249 251 253 253 253 249 246 245 247 250 253 256 256 255 257 264 270 271 275 284 297 302 308 326 347 337 224 193 180 180 172 172 177 180
269 269 268 267 266 265 265 265 264 264 264 263 263 264 265 265 265 266 267 268 268 268 268 269 269 269 269 267 268 269 270 270 269 269 268 267 267 267 266 265 265 264 263 262 261 259 256 254 252 252 251 251 251 252 252 254 254 252 252 249 244 243 243 245 248 252 253 252 251 254 260 264 267 275 290 299 303 312 334 343 249 205 186 184 177 173 178 182
269 269 269 268 267 265 264 264 264 264 264 263 262 263 264 264 264 265 266 267 267 267 268 268 269 269 267 267 267 268 269 269 266 265 266 266 267 267 265 264 264 263 263 263 261 258 256 254 254 255 254 253 252 252 251 251 250 247 247 245 243 241 239 239 243 247 250 250 247 246 252 258 260 264 278 290 294 300 314 334 297 224 200 191 182 176 181 187
269 269 269 268 268 266 265 264 264 264 264 264 263 262 262 263 264 264 264 266 266 267 267 267 267 267 267 266 266 266 267 266 264 264 265 265 266 264 263 262 261 262 264 263 261 258 257 257 257 257 255 253 250 249 247 247 246 243 242 242 240 238 236 234 237 241 245 246 244 243 246 251 255 254 262 275 282 291 300 315 310 253 221 203 188 181 184 189
270 269 269 269 268 267 266 265 264 264 264 264 264 263 262 262 263 263 264 265 266 266 266 265 265 265 266 265 264 266 265 262 263 263 262 261 259 260 262 261 260 263 263 260 258 259 259 258 257 255 253 250 248 246 245 245 244 241 239 239 238 237 236 234 234 237 241 243 242 241 242 245 251 248 246 259 271 283 290 297 294 256 233 218 201 190 187 189
269 269 268 268 268 268 266 265 264 264 264 263 263 263 263 262 262 263 263 264 265 264 263 263 264 263 264 265 264 263 260 260 260 259 259 259 257 257 258 259 261 262 258 256 256 258 259 257 255 253 251 249 248 246 245 244 243 240 238 238 238 239 238 236 235 236 239 241 241 240 241 242 247 246 239 246 259 269 277 283 280 249 234 228 219 205 193 188
268 268 268 267 267 267 266 265 264 263 263 263 262 262 262 262 262 261 261 261 262 262 261 260 261 261 262 263 262 259 258 259 258 256 258 260 258 255 253 256 260 257 253 253 254 255 257 256 253 252 251 249 248 246 244 243 243 241 239 238 240 241 241 239 237 236 238 241 241 241 241 241 242 243 237 240 248 256 264 270 269 254 237 230 227 217 200 189
268 267 267 267 266 267 266 265 263 262 261 262 262 261 261 261 261 260 259 259 258 259 260 259 258 259 261 262 260 258 257 256 256 256 257 257 255 252 249 249 251 250 249 249 249 249 252 253 251 250 250 250 248 246 244 244 244 242 240 240 241 242 240 239 237 236 237 240 241 240 241 240 240 239 236 237 241 245 254 260 258 256 247 233 225 219 205 190
267 266 266 266 265 265 266 265 264 262 261 260 260 260 260 259 259 259 258 257 256 256 257 258 257 257 258 259 258 257 254 252 254 256 253 251 251 251 248 244 242 244 245 245 245 244 248 253 252 249 250 250 248 247 247 246 246 244 242 243 243 242 240 238 237 236 236 239 240 240 241 240 238 236 233 234 235 236 242 252 252 250 255 240 221 213 203 189
267 266 265 265 264 264 264 265 264 262 261 259 259 259 259 258 258 258 257 257 255 254 254 256 256 255 254 254 255 256 253 249 251 253 250 249 249 249 247 242 238 238 240 242 241 242 247 250 246 244 246 245 244 246 248 247 245 244 243 243 242 241 239 237 236 234 233 235 237 237 238 239 236 232 231 232 231 229 230 243 248 239 243 241 219 204 196 186
267 266 265 264 264 263 262 263 263 263 261 260 258 257 257 257 257 257 256 256 255 253 252 253 254 254 252 251 250 251 252 249 247 247 247 247 247 244 242 239 236 235 237 237 236 240 243 239 236 237 237 238 241 245 245 243 243 244 243 242 241 239 236 234 231 229 230 230 232 233 233 235 234 229 229 231 227 222 220 231 240 230 225 230 217 203 193 185
267 266 265 264 263 262 261 260 261 262 261 260 258 257 256 256 256 256 255 255 254 252 250 250 251 251 250 249 247 247 248 247 246 244 242 242 244 242 239 238 237 234 233 232 233 237 237 233 231 231 232 236 240 242 239 239 243 243 241 241 240 239 236 233 229 227 227 227 229 230 229 234 233 228 229 229 222 217 215 223 231 227 220 219 215 206 195 185
267 266 265 264 263 262 261 260 259 259 260 260 258 257 256 255 254 254 255 255 252 250 249 249 249 248 248 247 246 244 243 243 244 244 240 238 240 241 239 238 237 234 231 230 231 233 233 230 227 229 234 237 238 237 235 237 241 240 239 240 240 240 237 233 229 227 225 226 228 229 230 235 234 231 231 227 219 217 217 219 222 224 219 212 211 207 196 184
267 265 265 264 263 262 261 261 259 258 258 258 258 257 256 254 253 254 254 252 250 249 249 247 246 245 244 244 243 242 242 241 241 241 240 237 235 237 238 236 233 230 228 226 226 229 229 226 224 228 235 236 236 235 232 231 235 236 236 239 239 238 236 233 229 226 226 227 229 229 230 235 235 234 233 228 221 220 219 215 216 221 218 211 209 207 197 186
266 265 264 263 262 261 261 260 260 259 257 256 256 256 255 254 253 252 251 250 249 249 247 245 244 243 242 241 241 241 240 239 238 238 239 238 234 233 234 235 233 230 228 227 228 229 230 228 226 230 237 238 235 233 227 223 231 236 236 239 240 238 236 232 229 227 227 228 229 228 229 233 235 234 233 229 225 223 220 215 214 218 217 211 207 206 202 192
266 265 264 262 261 260 259 259 259 259 258 256 255 254 254 254 253 250 248 248 248 247 245 243 241 241 240 239 239 239 239 238 237 236 236 236 234 232 232 233 233 231 228 229 230 231 231 231 230 229 234 236 234 232 228 226 235 239 235 236 237 232 231 230 229 228 227 228 229 228 228 231 234 233 231 230 228 224 221 218 214 215 217 213 208 206 204 198
266 265 264 262 261 260 258 258 257 257 257 256 255 254 253 253 251 249 247 246 246 245 244 242 240 238 238 238 237 237 238 237 236 235 234 234 233 232 231 231 230 229 227 227 228 230 229 230 230 229 230 234 236 234 231 229 233 234 228 220 219 224 228 229 229 228 226 227 226 226 228 229 231 233 231 230 230 226 223 220 216 214 215 214 212 209 206 203
266 265 264 262 261 260 259 257 256 256 256 255 255 254 253 252 250 248 246 245 244 243 242 241 239 238 237 236 236 236 236 236 236 234 233 232 231 230 230 230 229 228 228 227 227 229 229 228 230 230 228 230 232 230 227 225 226 228 218 204 213 226 227 224 225 224 223 224 223 224 227 227 227 231 230 227 228 228 223 221 218 215 213 214 216 213 209 209
266 266 265 263 261 260 259 258 256 255 255 254 254 254 253 251 250 248 246 244 243 241 240 240 239 238 236 235 235 235 235 235 235 234 233 231 230 229 230 230 229 229 229 228 228 230 230 230 232 232 231 229 230 230 229 226 226 225 211 205 216 225 215 212 215 213 215 220 220 221 226 227 224 227 229 225 224 226 225 222 219 215 212 214 218 217 212 211
267 266 266 265 263 261 260 259 257 256 254 254 253 253 252 251 250 249 246 244 242 240 239 239 239 238 236 234 233 233 233 233 233 233 233 231 229 229 229 229 228 228 228 227 228 228 230 232 233 233 233 232 232 233 232 229 226 223 215 211 215 209 198 202 204 205 212 218 220 221 225 227 225 226 229 226 223 225 227 225 222 217 214 214 217 218 217 214
268 267 266 265 264 262 261 260 258 257 255 254 253 252 251 250 249 248 246 244 241 240 239 238 237 237 236 234 233 232 232 232 232 233 232 231 230 228 228 228 227 227 227 227 227 226 227 229 230 230 231 230 230 230 228 223 220 220 216 210 205 197 191 195 196 200 210 215 218 219 222 225 225 226 230 230 227 226 228 229 227 222 218 217 217 218 219 219
270 268 267 266 265 263 261 260 259 258 257 255 253 252 250 250 249 248 246 244 241 239 238 237 236 236 236 234 233 231 231 231 232 232 232 231 230 228 228 227 227 226 226 227 227 225 225 227 228 229 228 227 225 223 221 218 216 217 213 205 200 195 192 194 193 193 202 211 215 217 220 224 225 226 229 230 229 227 227 229 229 227 224 222 222 220 221 222
270 268 267 266 265 264 262 260 259 258 257 256 255 253 251 249 248 247 246 244 242 239 237 236 235 235 234 234 233 231 230 230 231 231 231 230 229 228 227 227 226 225 224 226 226 225 224 225 227 229 228 225 221 218 216 214 213 213 209 202 197 195 196 196 193 192 198 208 215 219 221 223 225 227 228 230 229 227 226 226 227 228 226 224 224 223 222 222
270 268 266 265 263 262 261 259 258 257 256 255 255 254 252 250 248 247 246 244 242 240 238 235 235 234 233 233 232 231 230 229 229 230 229 229 228 228 227 226 226 224 223 224 225 225 225 224 225 228 228 224 218 216 215 212 211 210 207 202 196 193 195 193 193 197 199 205 218 226 227 221 221 227 229 230 230 229 228 227 227 227 226 225 224 223 222 221
272 269 266 264 262 260 259 257 256 255 254 254 253 252 252 251 249 246 245 244 241 240 238 235 234 233 232 232 231 230 230 229 229 228 228 228 227 227 226 226 226 225 223 223 223 224 224 223 223 225 226 223 218 216 215 213 211 208 205 202 194 189 190 190 196 200 196 201 214 228 233 221 210 217 224 227 229 229 228 228 228 228 229 228 227 225 223 223
275 272 268 265 262 260 258 256 254 252 252 252 251 250 250 250 249 247 245 244 242 240 238 236 234 233 232 231 231 230 229 229 228 227 227 227 227 226 225 225 225 225 224 223 223 223 223 223 223 224 225 224 219 216 216 215 212 207 204 201 194 191 193 193 198 194 186 194 201 211 231 223 206 207 214 217 223 225 226 228 228 229 230 230 230 229 228 226
277 275 271 266 263 260 258 255 253 251 249 249 248 248 247 247 247 246 245 244 242 240 238 236 234 233 232 231 230 230 229 229 228 227 226 226 226 225 225 224 224 224 224 223 222 222 223 223 223 224 225 225 222 218 216 217 214 209 206 203 198 197 196 195 195 186 179 190 192 199 226 227 214 208 209 210 217 221 224 226 228 229 230 232 233 233 233 232
279 276 272 269 264 261 258 255 252 250 248 247 245 245 245 245 244 244 243 243 242 240 238 236 234 232 232 231 230 230 229 229 228 226 225 225 225 225 224 224 224 223 223 223 222 222 222 222 222 223 224 224 223 219 216 217 215 210 209 207 203 201 200 197 192 183 182 191 188 195 222 232 224 214 210 212 215 217 222 225 227 229 230 232 234 235 235 236
280 276 273 270 266 262 259 256 253 249 247 245 244 242 242 242 242 242 241 240 240 240 238 236 234 232 231 230 230 230 229 229 229 227 225 225 224 224 224 224 223 223 223 222 222 222 222 222 222 222 223 223 223 221 218 216 215 211 210 209 206 205 203 198 191 188 194 195 190 197 217 231 233 224 214 213 214 215 219 224 227 229 230 232 233 234 235 236
282 278 274 271 267 263 259 256 253 250 247 244 243 241 240 240 240 240 239 238 238 238 238 236 234 232 231 230 230 229 229 229 228 228 226 225 224 224 224 224 223 223 222 222 222 222 222 221 221 221 222 222 223 222 220 217 215 213 212 211 209 208 206 201 196 198 202 198 198 208 215 226 239 237 225 218 215 212 213 218 221 223 224 228 231 233 235 236
284 280 276 272 268 264 260 255 252 249 247 244 242 240 238 237 237 238 238 237 236 236 236 236 234 232 231 230 229 229 229 229 228 228 227 226 224 224 224 224 223 223 222 222 221 221 222 221 220 221 221 221 222 223 221 218 216 214 212 212 212 211 209 205 202 203 205 202 208 217 220 225 238 244 241 233 220 211 209 209 210 213 216 219 224 229 233 235
286 282 278 273 269 265 261 256 251 247 245 244 241 239 237 235 235 235 236 236 235 234 234 234 234 233 231 229 229 229 229 229 229 228 228 226 225 224 224 224 223 223 222 222 221 221 221 221 220 220 220 221 222 223 222 220 217 215 213 213 214 213 212 209 207 206 205 204 211 219 221 224 231 237 242 240 229 217 212 208 204 208 213 216 220 225 230 234
289 286 282 276 270 265 261 257 252 247 244 243 241 239 236 234 233 233 234 234 234 234 232 231 232 232 231 229 228 228 228 229 229 228 228 227 226 225 224 224 224 223 223 222 222 221 221 221 220 220 220 220 221 222 222 221 219 216 214 213 214 215 214 213 212 210 207 205 211 218 219 222 228 229 233 239 236 226 218 214 210 212 215 218 222 226 230 234
293 289 285 279 272 266 261 258 254 249 245 242 241 239 236 233 231 231 231 232 233 233 231 230 229 231 231 229 228 227 227 227 228 229 228 227 227 226 225 224 224 224 223 223 222 222 222 221 220 220 219 220 221 221 222 222 220 217 216 214 214 214 215 215 214 213 211 209 212 216 217 222 229 229 230 236 238 232 223 220 218 220 222 223 226 228 230 233
Height
10966 10967 10967 10967 10967 10967 10967 10967 10967 10968 10968 10968 10968 10969 10969 10969 10970 10970 10970 10971 10971 10971 10972 10972 10973 10973 10973 10973 10973 10973 10973 10974 10975 10976 10976 10977 10977 10978 10977 10977 10977 10977 10977 10977 10977 10976 10976 10976 10976 10976 10975 10975 10975 10976 10976 10976 10977 10977 10977 10978 10979 10980 10980 10981 10981 10982 10983 10983 10982 10982 10982 10982 10982 10982 10982 10982 10982 10982 10982 10982 10982 10983 10983 10983 10984 10984 10984 10984
10963 10963 10963 10964 10964 10964 10964 10964 10964 10965 10965 10965 10966 10966 10966 10967 10968 10968 10969 10969 10969 10969 10969 10970 10970 10971 10972 10972 10971 10971 10972 10972 10972 10973 10974 10975 10976 10977 10977 10977 10976 10977 10977 10977 10977 10976 10976 10976 10976 10975 10975 10975 10975 10975 10976 10976 10976 10976 10976 10976 10977 10977 10978 10979 10979 10980 10980 10980 10980 10979 10979 10979 10979 10979 10979 10978 10978 10978 10979 10979 10979 10980 10980 10981 10981 10981 10982 10982
10959 10960 10960 10960 10960 10961 10961 10961 10961 10962 10962 10962 10963 10963 10963 10964 10965 10966 10966 10967 10967 10967 10967 10968 10968 10968 10969 10970 10970 10970 10970 10970 10970 10971 10971 10972 10974 10975 10976 10975 10975 10975 10976 10976 10976 10976 10976 10975 10975 10975 10975 10975 10974 10974 10975 10975 10975 10975 10975 10975 10975 10976 10976 10977 10977 10978 10978 10978 10977 10977 10976 10977 10976 10976 10975 10975 10975 10975 10975 10976 10976 10977 10978 10978 10978 10979 10979 10980
10956 10956 10956 10957 10957 10957 10958 10958 10958 10958 10959 10959 10959 10960 10960 10961 10962 10963 10964 10964 10964 10964 10965 10965 10965 10965 10966 10967 10968 10968 10968 10968 10968 10968 10969 10969 10971 10973 10973 10974 10974 10974 10974 10975 10975 10975 10975 10975 10975 10974 10974 10974 10974 10974 10974 10974 10975 10975 10975 10975 10975 10975 10976 10976 10976 10976 10976 10976 10975 10975 10974 10974 10974 10973 10973 10973 10972 10972 10973 10973 10974 10974 10975 10975 10975 10976 10977 10977
10952 10952 10953 10953 10953 10954 10954 10954 10955 10955 10955 10956 10956 10956 10956 10957 10958 10959 10960 10961 10961 10961 10962 10962 10963 10963 10963 10964 10965 10966 10966 10966 10966 10966 10966 10967 10967 10970 10971 10971 10972 10972 10972 10973 10974 10974 10974 10974 10974 10974 10973 10973 10973 10973 10973 10973 10973 10973 10973 10974 10974 10974 10974 10975 10975 10975 10975 10975 10974 10973 10973 10972 10971 10971 10971 10970 10970 10970 10970 10970 10971 10971 10972 10972 10973 10974 10975 10975
10948 10948 10949 10949 10950 10950 10950 10951 10951 10952 10952 10952 10952 10952 10953 10954 10955 10956 10957 10958 10958 10958 10958 10959 10960 10960 10960 10960 10961 10962 10963 10963 10964 10964 10964 10964 10964 10966 10968 10969 10969 10970 10970 10971 10972 10972 10973 10973 10973 10972 10972 10972 10972 10972 10972 10972 10972 10972 10972 10972 10972 10972 10972 10973 10973 10973 10974 10973 10972 10971 10970 10969 10969 10968 10968 10967 10967 10967 10967 10967 10968 10968 10969 10970 10970 10971 10972 10972
10944 10945 10945 10945 10946 10946 10946 10947 10947 10948 10948 10948 10947 10947 10948 10950 10951 10952 10953 10953 10954 10955 10955 10956 10957 10957 10957 10957 10958 10959 10959 10960 10961 10961 10961 10961 10962 10962 10964 10965 10966 10967 10968 10968 10969 10970 10970 10971 10971 10971 10971 10971 10970 10970 10970 10970 10970 10970 10970 10970 10971 10970 10970 10971 10971 10972 10972 10972 10971 10970 10968 10967 10967 10966 10966 10965 10964 10964 10964 10964 10965 10965 10966 10967 10967 10968 10969 10970
10940 10941 10941 10941 10941 10942 10942 10943 10943 10944 10944 10944 10943 10943 10944 10945 10947 10947 10948 10949 10950 10951 10951 10952 10953 10953 10954 10954 10954 10954 10955 10956 10957 10958 10958 10958 10959 10959 10960 10962 10963 10964 10965 10965 10965 10967 10968 10969 10969 10969 10969 10969 10969 10969 10969 10969 10969 10969 10968 10968 10969 10969 10968 10968 10969 10970 10971 10971 10969 10968 10967 10966 10965 10965 10964 10963 10962 10962 10961 10961 10962 10962 10963 10964 10965 10966 10967 10968
10936 10936 10936 10937 10937 10937 10938 10938 10938 10939 10939 10939 10938 10937 10939 10941 10942 10942 10943 10944 10945 10946 10947 10947 10948 10949 10950 10950 10950 10950 10951 10953 10953 10954 10955 10955 10956 10956 10957 10958 10959 10960 10961 10962 10962 10963 10965 10967 10967 10967 10967 10967 10967 10967 10967 10967 10967 10967 10966 10966 10967 10967 10966 10966 10967 10968 10969 10970 10969 10966 10965 10964 10963 10963 10962 10961 10960 10960 10959 10959 10959 10960 10961 10962 10963 10964 10965 10966
10931 10931 10932 10932 10932 10933 10933 10933 10934 10934 10935 10934 10932 10932 10934 10936 10937 10936 10937 10939 10940 10941 10942 10943 10944 10945 10946 10946 10946 10945 10947 10949 10949 10950 10951 10951 10952 10953 10953 10954 10955 10956 10958 10958 10958 10959 10962 10964 10964 10963 10963 10965 10966 10965 10965 10965 10965 10965 10965 10965 10965 10965 10965 10964 10965 10966 10967 10969 10968 10966 10964 10963 10962 10961 10961 10960 10959 10959 10958 10958 10957 10957 10958 10960 10961 10962 10963 10963
10926 10927 10927 10927 10928 10928 10928 10928 10929 10929 10930 10929 10927 10927 10929 10931 10931 10931 10932 10933 10934 10936 10937 10938 10939 10940 10941 10942 10941 10940 10944 10945 10944 10945 10946 10947 10948 10949 10950 10950 10951 10952 10954 10955 10955 10956 10959 10961 10960 10959 10960 10962 10963 10963 10963 10963 10963 10963 10964 10963 10963 10963 10963 10963 10963 10964 10965 10967 10967 10965 10964 10962 10961 10960 10960 10959 10959 10958 10957 10956 10955 10956 10957 10958 10959 10960 10961 10962
10921 10922 10922 10922 10923 10923 10924 10923 10924 10925 10925 10923 10922 10922 10924 10925 10925 10926 10927 10927 10928 10930 10932 10933 10934 10935 10936 10937 10935 10936 10940 10940 10939 10940 10941 10942 10944 10945 10946 10947 10947 10948 10949 10951 10951 10953 10955 10957 10956 10955 10957 10959 10960 10960 10960 10960 10960 10961 10961 10961 10961 10962 10961 10961 10961 10961 10963 10965 10966 10965 10963 10962 10961 10960 10960 10960 10959 10958 10957 10955 10954 10955 10956 10957 10958 10959 10960 10961
10916 10916 10917 10917 10917 10918 10918 10918 10919 10919 10920 10918 10916 10917 10918 10919 10919 10920 10921 10921 10922 10924 10926 10927 10928 10929 10931 10931 10930 10932 10935 10935 10934 10934 10935 10938 10940 10941 10942 10942 10943 10944 10945 10946 10947 10949 10951 10952 10951 10951 10953 10955 10956 10956 10957 10957 10958 10958 10959 10959 10960 10960 10959 10959 10959 10959 10960 10962 10964 10964 10963 10961 10961 10960 10960 10960 10959 10958 10956 10955 10954 10954 10955 10956 10957 10958 10959 10960
10910 10910 10911 10911 10912 10913 10913 10912 10913 10914 10914 10913 10911 10911 10912 10913 10913 10914 10915 10916 10916 10918 10920 10921 10922 10924 10925 10925 10924 10928 10930 10929 10929 10928 10930 10934 10936 10936 10936 10937 10938 10939 10940 10941 10942 10944 10945 10947 10947 10948 10949 10950 10952 10952 10953 10954 10954 10956 10956 10957 10958 10958 10957 10957 10957 10957 10958 10960 10961 10962 10962 10961 10961 10960 10960 10959 10958 10957 10955 10954 10953 10954 10954 10956 10957 10958 10959 10959
10904 10904 10904 10905 10906 10907 10907 10906 10906 10908 10908 10907 10906 10906 10907 10907 10907 10908 10909 10910 10910 10911 10913 10915 10917 10917 10919 10919 10918 10922 10925 10923 10923 10923 10926 10928 10930 10930 10930 10932 10934 10934 10935 10935 10937 10938 10940 10941 10941 10943 10944 10946 10948 10948 10949 10950 10950 10952 10953 10954 10955 10955 10954 10954 10956 10955 10956 10957 10959 10960 10961 10960 10960 10959 10959 10959 10958 10956 10955 10953 10953 10953 10954 10955 10956 10957 10958 10959
10898 10898 10898 10899 10900 10900 10900 10900 10900 10901 10902 10901 10900 10901 10901 10901 10901 10902 10903 10904 10904 10904 10906 10909 10910 10911 10913 10913 10913 10917 10919 10916 10916 10919 10921 10922 10923 10924 10924 10927 10928 10929 10930 10930 10930 10932 10934 10935 10936 10938 10940 10942 10943 10943 10944 10945 10945 10948 10950 10952 10953 10953 10952 10952 10953 10953 10954 10956 10957 10958 10959 10959 10958 10958 10958 10957 10956 10955 10954 10953 10952 10953 10953 10954 10955 10956 10957 10958
10891 10891 10891 10892 10893 10894 10894 10893 10893 10894 10895 10895 10894 10895 10896 10895 10895 10895 10896 10897 10897 10898 10900 10901 10903 10904 10906 10907 10907 10910 10912 10911 10911 10913 10915 10915 10916 10917 10919 10921 10922 10923 10924 10924 10924 10926 10928 10929 10930 10933 10935 10937 10938 10939 10939 10938 10940 10944 10947 10949 10950 10950 10949 10949 10951 10951 10953 10954 10955 10956 10957 10958 10957 10957 10956 10955 10955 10954 10953 10952 10952 10952 10952 10953 10954 10955 10957 10958
10882 10883 10883 10884 10885 10887 10887 10886 10886 10887 10888 10889 10888 10888 10889 10889 10889 10889 10889 10890 10891 10892 10894 10894 10895 10897 10899 10902 10902 10903 10906 10906 10905 10906 10908 10909 10909 10910 10913 10914 10915 10916 10917 10918 10919 10921 10922 10923 10925 10927 10929 10932 10932 10932 10930 10931 10937 10941 10943 10946 10947 10947 10947 10947 10948 10949 10951 10952 10953 10954 10955 10956 10956 10955 10955 10953 10953 10953 10952 10951 10951 10951 10951 10952 10953 10954 10956 10957
10874 10874 10875 10876 10877 10879 10880 10879 10878 10879 10880 10882 10881 10881 10882 10883 10883 10883 10882 10882 10884 10886 10888 10886 10887 10890 10892 10896 10897 10896 10899 10900 10899 10899 10901 10902 10903 10904 10906 10907 10908 10910 10910 10912 10914 10915 10916 10917 10918 10919 10921 10924 10925 10925 10925 10927 10934 10937 10938 10942 10943 10943 10944 10944 10945 10946 10948 10950 10951 10952 10953 10954 10954 10954 10954 10952 10951 10951 10951 10950 10950 10950 10950 10951 10952 10953 10955 10956
10866 10866 10866 10867 10868 10870 10872 10871 10870 10871 10871 10874 10874 10873 10874 10876 10877 10876 10875 10875 10877 10879 10880 10880 10880 10882 10884 10888 10891 10891 10892 10894 10893 10892 10894 10896 10897 10899 10900 10900 10901 10903 10904 10907 10908 10909 10909 10909 10909 10912 10915 10919 10921 10922 10922 10925 10930 10933 10934 10937 10938 10938 10940 10941 10943 10943 10944 10947 10949 10950 10951 10952 10952 10952 10952 10951 10949 10949 10949 10949 10949 10949 10949 10950 10951 10952 10954 10955
10857 10857 10857 10857 10859 10861 10863 10863 10862 10862 10862 10864 10866 10866 10867 10868 10869 10870 10868 10869 10869 10871 10873 10873 10874 10873 10875 10882 10886 10886 10886 10887 10886 10886 10888 10890 10891 10892 10893 10895 10895 10896 10899 10901 10901 10901 10901 10902 10905 10908 10911 10914 10916 10918 10918 10920 10924 10928 10929 10931 10933 10933 10935 10939 10940 10940 10942 10943 10946 10948 10949 10950 10950 10951 10951 10949 10948 10947 10947 10947 10948 10948 10948 10949 10949 10950 10952 10953
10848 10848 10847 10847 10848 10850 10853 10855 10854 10854 10854 10854 10856 10858 10859 10859 10861 10862 10862 10862 10861 10864 10864 10864 10867 10864 10866 10876 10879 10880 10882 10878 10878 10881 10883 10885 10886 10884 10885 10889 10890 10890 10895 10895 10893 10893 10894 10898 10902 10903 10905 10908 10910 10911 10912 10913 10917 10922 10924 10925 10926 10925 10930 10936 10937 10938 10939 10940 10943 10946 10947 10947 10948 10949 10949 10948 10947 10946 10946 10946 10946 10947 10948 10948 10948 10949 10950 10952
10838 10838 10837 10838 10837 10838 10842 10844 10844 10845 10845 10845 10845 10848 10850 10851 10852 10853 10856 10855 10852 10856 10856 10854 10860 10857 10856 10867 10873 10876 10875 10870 10872 10875 10876 10880 10880 10879 10879 10882 10884 10887 10890 10888 10886 10887 10888 10894 10897 10897 10899 10901 10902 10904 10906 10907 10911 10915 10918 10918 10917 10918 10926 10932 10933 10935 10936 10937 10941 10943 10944 10945 10945 10947 10947 10946 10946 10946 10945 10945 10945 10946 10947 10948 10948 10948 10948 10950
10828 10827 10827 10828 10826 10825 10829 10832 10833 10835 10834 10834 10836 10837 10840 10841 10843 10844 10848 10848 10845 10846 10847 10847 10851 10850 10848 10857 10867 10870 10866 10864 10866 10867 10869 10874 10875 10876 10875 10874 10879 10883 10882 10881 10882 10882 10883 10888 10891 10890 10892 10895 10896 10898 10899 10901 10904 10907 10912 10911 10908 10914 10923 10928 10930 10932 10932 10934 10937 10940 10941 10942 10942 10944 10945 10944 10944 10944 10944 10944 10944 10945 10946 10947 10947 10947 10947 10948
10817 10817 10817 10817 10816 10813 10815 10819 10822 10824 10823 10823 10826 10828 10829 10831 10832 10835 10838 10842 10839 10833 10836 10842 10843 10841 10842 10850 10859 10860 10858 10858 10858 10859 10864 10867 10869 10872 10871 10870 10874 10876 10875 10876 10878 10877 10877 10883 10886 10885 10887 10889 10890 10892 10893 10895 10898 10902 10905 10903 10904 10912 10920 10924 10928 10929 10930 10931 10934 10937 10938 10939 10939 10941 10942 10942 10943 10943 10943 10943 10943 10944 10945 10945 10946 10946 10946 10946
10806 10805 10806 10806 10806 10801 10801 10806 10808 10811 10813 10813 10815 10817 10819 10820 10822 10826 10828 10833 10834 10824 10823 10834 10836 10833 10835 10842 10848 10850 10854 10851 10846 10854 10862 10860 10860 10865 10867 10868 10869 10868 10868 10871 10875 10872 10871 10876 10881 10880 10881 10883 10885 10885 10887 10891 10894 10897 10898 10899 10903 10910 10915 10920 10923 10926 10927 10927 10930 10934 10934 10935 10936 10938 10939 10940 10941 10941 10941 10941 10942 10943 10943 10944 10944 10945 10945 10945
10793 10793 10794 10793 10794 10792 10789 10791 10793 10797 10801 10802 10804 10805 10807 10810 10811 10815 10817 10822 10826 10819 10814 10821 10829 10830 10829 10831 10836 10841 10846 10843 10839 10849 10856 10850 10852 10858 10862 10865 10863 10861 10861 10867 10871 10867 10866 10873 10877 10876 10877 10880 10879 10879 10883 10888 10890 10890 10893 10897 10900 10905 10911 10915 10919 10924 10924 10923 10927 10929 10929 10930 10932 10933 10936 10938 10938 10939 10940 10940 10941 10942 10943 10943 10943 10943 10944 10944
10778 10780 10781 10780 10781 10781 10778 10777 10777 10781 10786 10789 10792 10794 10795 10798 10800 10804 10806 10810 10816 10814 10809 10810 10817 10825 10825 10823 10825 10829 10836 10837 10835 10842 10845 10843 10847 10852 10856 10858 10857 10854 10857 10864 10867 10862 10864 10872 10872 10872 10875 10874 10873 10876 10882 10884 10884 10885 10889 10893 10895 10900 10905 10909 10916 10920 10919 10920 10924 10923 10923 10925 10926 10930 10934 10934 10935 10937 10938 10938 10939 10940 10941 10942 10942 10942 10942 10943
10762 10764 10768 10766 10765 10767 10766 10765 10763 10763 10769 10774 10778 10782 10783 10785 10788 10791 10794 10799 10805 10806 10805 10803 10805 10812 10817 10817 10816 10818 10824 10828 10829 10833 10836 10837 10840 10845 10848 10849 10849 10851 10854 10861 10861 10858 10863 10868 10867 10870 10870 10866 10868 10875 10878 10878 10878 10882 10886 10888 10890 10894 10899 10904 10910 10912 10914 10917 10915 10913 10916 10917 10920 10927 10930 10930 10932 10934 10936 10937 10937 10939 10940 10940 10941 10941 10941 10941
10746 10748 10752 10752 10750 10751 10752 10752 10752 10749 10751 10758 10762 10767 10770 10772 10776 10777 10783 10791 10793 10794 10796 10796 10796 10800 10805 10808 10809 10810 10813 10816 10820 10825 10829 10831 10832 10836 10840 10841 10844 10848 10851 10855 10856 10855 10859 10862 10865 10867 10863 10861 10867 10872 10873 10873 10876 10879 10882 10883 10885 10889 10894 10898 10902 10905 10908 10908 10903 10906 10911 10911 10917 10924 10924 10925 10929 10932 10934 10934 10935 10937 10939 10940 10941 10941 10941 10940
10731 10732 10735 10737 10735 10735 10735 10735 10739 10738 10736 10740 10746 10751 10754 10759 10762 10765 10775 10782 10778 10781 10787 10787 10788 10790 10792 10796 10799 10802 10804 10806 10809 10815 10821 10824 10825 10829 10834 10836 10840 10844 10846 10851 10852 10850 10852 10857 10862 10860 10857 10859 10865 10868 10869 10871 10873 10876 10877 10879 10882 10885 10889 10893 10896 10899 10900 10897 10898 10905 10909 10908 10913 10918 10918 10922 10927 10930 10931 10932 10934 10936 10937 10939 10940 10940 10941 10940
10715 10716 10719 10721 10720 10720 10719 10719 10722 10724 10725 10725 10728 10734 10738 10742 10749 10757 10767 10766 10762 10770 10776 10776 10779 10780 10780 10784 10787 10792 10796 10798 10801 10805 10811 10816 10819 10823 10826 10828 10832 10836 10840 10844 10842 10841 10845 10851 10854 10853 10853 10858 10861 10864 10866 10868 10869 10871 10874 10876 10879 10881 10884 10887 10889 10891 10892 10893 10897 10903 10906 10905 10907 10912 10915 10920 10925 10927 10928 10930 10932 10933 10935 10937 10938 10940 10940 10940
10698 10700 10703 10704 10704 10705 10705 10705 10705 10707 10711 10712 10713 10717 10720 10726 10737 10748 10752 10748 10749 10758 10763 10764 10768 10769 10770 10773 10776 10781 10785 10789 10793 10796 10801 10807 10812 10816 10817 10820 10824 10830 10835 10835 10833 10836 10841 10846 10850 10852 10852 10854 10857 10859 10862 10864 10865 10867 10871 10873 10876 10878 10880 10881 10883 10885 10888 10891 10895 10900 10902 10900 10901 10907 10913 10917 10921 10924 10926 10928 10929 10931 10933 10935 10936 10938 10939 10939
10679 10683 10687 10687 10687 10689 10690 10691 10691 10692 10694 10696 10699 10701 10704 10713 10725 10731 10733 10733 10737 10744 10748 10752 10756 10757 10759 10762 10765 10769 10773 10779 10784 10788 10792 10798 10804 10808 10810 10813 10818 10823 10827 10827 10830 10835 10839 10843 10848 10848 10846 10847 10851 10854 10858 10861 10863 10866 10870 10872 10874 10875 10875 10876 10879 10882 10885 10888 10892 10896 10896 10894 10896 10901 10908 10913 10916 10920 10923 10925 10927 10929 10931 10932 10934 10936 10937 10938
10661 10664 10669 10670 10669 10672 10675 10675 10676 10677 10678 10680 10683 10686 10693 10702 10707 10710 10715 10720 10725 10730 10734 10739 10742 10744 10748 10752 10755 10758 10762 10768 10774 10779 10783 10788 10794 10798 10800 10804 10808 10813 10817 10820 10826 10830 10833 10838 10840 10839 10841 10843 10847 10851 10855 10859 10861 10863 10867 10869 10869 10869 10870 10874 10877 10879 10883 10885 10888 10889 10887 10888 10892 10897 10903 10909 10911 10915 10919 10922 10924 10927 10928 10930 10931 10933 10935 10937
10644 10645 10650 10653 10653 10655 10658 10659 10660 10661 10663 10664 10667 10672 10680 10685 10686 10692 10700 10707 10712 10717 10721 10724 10728 10732 10736 10741 10745 10748 10752 10758 10763 10768 10773 10778 10784 10788 10790 10795 10800 10805 10811 10816 10821 10823 10828 10831 10830 10833 10837 10839 10841 10845 10850 10855 10857 10860 10865 10865 10864 10866 10870 10872 10873 10876 10879 10879 10881 10881 10878 10882 10889 10892 10896 10903 10906 10910 10914 10917 10920 10923 10925 10927 10928 10930 10933 10935
10628 10628 10631 10634 10636 10638 10639 10642 10644 10646 10647 10649 10652 10657 10663 10665 10670 10678 10686 10693 10698 10703 10706 10709 10713 10719 10725 10731 10735 10738 10742 10747 10751 10756 10762 10768 10774 10779 10783 10788 10794 10800 10806 10812 10816 10819 10823 10824 10824 10829 10833 10832 10835 10840 10846 10852 10855 10858 10860 10860 10862 10867 10868 10869 10870 10873 10874 10873 10874 10874 10872 10877 10885 10886 10887 10895 10901 10905 10908 10912 10916 10919 10922 10925 10925 10927 10930 10932
10613 10612 10613 10615 10617 10620 10623 10625 10627 10629 10631 10633 10637 10641 10644 10649 10655 10662 10671 10678 10682 10687 10692 10695 10699 10706 10713 10720 10725 10727 10731 10735 10739 10743 10750 10758 10765 10771 10776 10781 10787 10793 10799 10805 10809 10813 10816 10817 10819 10824 10826 10827 10832 10838 10845 10851 10854 10855 10856 10858 10863 10866 10865 10866 10868 10868 10869 10869 10870 10871 10870 10873 10878 10880 10883 10890 10897 10901 10904 10908 10912 10916 10919 10921 10922 10924 10927 10929
10596 10596 10597 10596 10596 10601 10606 10608 10610 10612 10614 10617 10621 10624 10629 10635 10640 10645 10654 10662 10666 10672 10677 10680 10686 10693 10699 10707 10713 10716 10720 10724 10728 10732 10739 10748 10757 10763 10768 10773 10779 10786 10792 10798 10801 10805 10808 10809 10812 10815 10817 10821 10828 10836 10842 10847 10848 10850 10852 10857 10860 10861 10862 10863 10864 10866 10866 10867 10867 10867 10867 10869 10874 10879 10882 10886 10892 10898 10901 10904 10908 10912 10915 10918 10920 10922 10924 10927
10576 10577 10578 10577 10575 10580 10587 10590 10592 10594 10597 10599 10603 10608 10614 10619 10623 10628 10636 10643 10650 10657 10662 10666 10673 10680 10686 10693 10700 10705 10708 10712 10716 10721 10728 10737 10747 10754 10758 10764 10771 10778 10785 10788 10792 10796 10799 10802 10805 10807 10809 10816 10825 10832 10836 10839 10841 10844 10848 10852 10854 10856 10858 10859 10861 10863 10863 10863 10863 10863 10864 10867 10872 10877 10879 10881 10887 10893 10897 10901 10905 10908 10912 10915 10917 10920 10922 10924
10553 10555 10557 10556 10554 10558 10566 10571 10573 10576 10579 10581 10585 10591 10597 10602 10607 10611 10619 10627 10634 10641 10647 10653 10659 10665 10672 10679 10686 10692 10696 10700 10703 10710 10718 10727 10736 10743 10749 10755 10762 10768 10775 10778 10782 10787 10792 10796 10799 10800 10804 10813 10820 10824 10826 10829 10833 10837 10841 10846 10849 10851 10854 10857 10859 10860 10860 10860 10860 10861 10863 10867 10871 10874 10875 10878 10882 10886 10891 10895 10899 10902 10906 10909 10912 10916 10919 10921
10527 10530 10533 10533 10532 10536 10543 10549 10554 10556 10559 10563 10567 10572 10579 10585 10591 10596 10602 10610 10617 10624 10633 10639 10644 10651 10658 10664 10671 10678 10683 10687 10691 10698 10707 10716 10725 10732 10739 10745 10751 10758 10764 10768 10773 10779 10785 10789 10792 10793 10799 10807 10813 10816 10818 10823 10828 10832 10837 10842 10846 10849 10853 10857 10858 10858 10859 10860 10860 10861 10863 10866 10869 10871 10872 10875 10877 10881 10885 10889 10892 10896 10899 10903 10906 10909 10912 10915
10498 10501 10507 10508 10508 10512 10519 10526 10532 10535 10537 10542 10549 10554 10560 10566 10574 10580 10585 10592 10601 10608 10616 10623 10630 10638 10644 10650 10657 10663 10668 10673 10679 10687 10696 10704 10713 10721 10728 10734 10740 10747 10753 10758 10764 10771 10775 10780 10784 10787 10791 10798 10804 10808 10812 10817 10823 10828 10834 10838 10843 10847 10851 10853 10854 10856 10859 10861 10862 10861 10860 10863 10867 10868 10869 10872 10874 10877 10880 10883 10887 10890 10893 10897 10900 10903 10906 10909
10472 10473 10479 10484 10484 10487 10494 10500 10506 10512 10515 10520 10528 10536 10541 10547 10555 10563 10568 10576 10585 10592 10599 10608 10617 10625 10630 10636 10642 10648 10653 10659 10666 10675 10683 10692 10700 10708 10716 10723 10729 10736 10742 10749 10756 10762 10766 10772 10777 10779 10782 10789 10797 10803 10808 10814 10820 10826 10831 10835 10839 10842 10845 10848 10850 10854 10858 10859 10860 10860 10856 10858 10863 10865 10866 10869 10870 10873 10875 10879 10882 10885 10888 10891 10894 10898 10901 10904
10451 10450 10453 10459 10463 10464 10468 10474 10480 10487 10492 10498 10506 10514 10522 10528 10535 10544 10552 10560 10568 10575 10583 10593 10603 10611 10617 10622 10628 10634 10639 10644 10651 10661 10671 10679 10688 10696 10704 10711 10717 10724 10732 10739 10746 10752 10757 10763 10768 10771 10777 10784 10792 10800 10807 10811 10817 10823 10827 10831 10835 10837 10840 10844 10846 10850 10854 10855 10857 10856 10852 10853 10858 10862 10864 10866 10868 10870 10872 10875 10878 10881 10884 10887 10890 10894 10897 10900
10434 10432 10432 10437 10442 10444 10446 10450 10456 10463 10468 10475 10484 10493 10501 10508 10515 10524 10534 10542 10549 10557 10567 10578 10588 10595 10602 10608 10614 10619 10624 10629 10637 10648 10658 10666 10675 10683 10692 10699 10706 10713 10721 10728 10736 10742 10747 10754 10760 10765 10771 10778 10785 10793 10798 10802 10808 10816 10820 10824 10829 10832 10835 10839 10842 10847 10850 10851 10854 10852 10847 10848 10854 10858 10862 10864 10866 10868 10870 10872 10874 10877 10881 10883 10886 10889 10892 10895
10420 10418 10416 10419 10424 10426 10427 10431 10436 10442 10447 10452 10460 10471 10480 10488 10495 10504 10515 10523 10531 10540 10551 10562 10570 10578 10587 10594 10600 10604 10609 10615 10624 10634 10645 10654 10663 10671 10679 10687 10694 10702 10710 10717 10725 10731 10737 10744 10752 10758 10764 10771 10777 10783 10789 10795 10802 10808 10812 10817 10822 10825 10830 10835 10840 10843 10844 10847 10850 10847 10844 10846 10849 10854 10859 10862 10863 10865 10867 10869 10872 10874 10877 10879 10881 10884 10886 10889
10406 10405 10405 10406 10407 10409 10412 10415 10419 10423 10427 10431 10437 10448 10460 10469 10476 10485 10495 10504 10512 10523 10536 10546 10553 10563 10573 10579 10585 10591 10595 10601 10611 10621 10632 10643 10651 10658 10666 10674 10681 10690 10698 10706 10713 10720 10726 10734 10743 10749 10756 10763 10768 10773 10780 10788 10794 10801 10806 10811 10815 10819 10824 10830 10835 10838 10841 10845 10846 10842 10843 10846 10847 10849 10855 10858 10860 10863 10865 10867 10869 10871 10873 10874 10876 10878 10880 10883
10394 10393 10395 10396 10395 10395 10398 10401 10405 10408 10410 10413 10418 10428 10440 10450 10458 10467 10475 10484 10494 10506 10520 10530 10538 10548 10557 10564 10570 10576 10582 10590 10599 10609 10620 10630 10639 10646 10653 10660 10669 10678 10686 10694 10702 10709 10716 10724 10733 10741 10748 10755 10759 10764 10772 10780 10787 10794 10800 10805 10809 10813 10818 10824 10829 10833 10837 10842 10841 10840 10844 10847 10846 10845 10848 10851 10856 10860 10862 10864 10865 10866 10868 10870 10872 10874 10875 10878
10385 10383 10385 10386 10385 10384 10384 10387 10391 10394 10396 10398 10403 10411 10421 10432 10441 10449 10457 10467 10476 10488 10501 10513 10522 10531 10541 10549 10556 10563 10572 10580 10588 10598 10608 10616 10624 10633 10640 10648 10657 10666 10675 10683 10691 10698 10705 10714 10724 10732 10739 10746 10750 10756 10763 10771 10779 10786 10793 10798 10803 10807 10813 10818 10824 10828 10832 10836 10837 10838 10843 10846 10843 10841 10841 10843 10849 10855 10858 10860 10861 10863 10865 10867 10868 10870 10872 10874
10377 10375 10375 10376 10375 10373 10373 10375 10378 10382 10384 10386 10390 10397 10405 10415 10424 10432 10440 10449 10458 10467 10480 10494 10504 10514 10525 10534 10543 10552 10563 10571 10578 10586 10594 10601 10610 10619 10628 10636 10645 10653 10663 10672 10681 10688 10695 10705 10714 10721 10729 10736 10741 10747 10754 10762 10770 10777 10785 10791 10796 10802 10808 10812 10817 10821 10825 10829 10831 10834 10840 10841 10836 10833 10835 10837 10842 10850 10854 10856 10858 10860 10861 10863 10865 10867 10869 10870
10370 10367 10367 10367 10366 10365 10365 10366 10368 10372 10375 10377 10380 10385 10392 10399 10408 10416 10424 10432 10440 10448 10460 10475 10488 10499 10509 10519 10530 10541 10551 10559 10566 10573 10580 10588 10597 10606 10615 10624 10633 10642 10651 10660 10670 10678 10686 10695 10704 10710 10719 10727 10732 10738 10746 10752 10760 10769 10777 10784 10790 10796 10800 10804 10809 10815 10819 10823 10827 10830 10834 10833 10828 10829 10834 10836 10838 10844 10849 10851 10854 10856 10859 10861 10863 10864 10866 10867